FW2950 Weather Reports


Display with metric or nautical units.
time (UTC)temp
F
wind
direction
speed
MPH
gust
MPH
rain 1hr
in
rain 24hr
in
rain mn
in
humidity
%
barometer
mb
20230130050340 19 315 0.0 0.0 0.00 0.00 0.00 67 1007.7
20230130050046 19 315 0.0 0.0 0.00 0.00 0.00 66 1015.6
20230130045818 19 315 0.0 0.0 0.00 0.00 0.00 66 1007.7
20230130045318 19 315 0.0 0.0 0.00 0.00 0.00 66 1007.6
20230130044818 20 315 0.0 0.0 0.00 0.00 0.00 66 1007.5
20230130044518 19 315 0.0 0.0 0.00 0.00 0.00 67 1015.7
20230130044317 20 315 0.0 0.0 0.00 0.00 0.00 66 1007.6
20230130043817 20 315 0.0 0.0 0.00 0.00 0.00 66 1007.5
20230130043328 20 315 0.0 0.0 0.00 0.00 0.00 66 1007.5
20230130043048 19 315 0.0 0.0 0.00 0.00 0.00 66 1015.6
20230130042828 20 315 0.0 0.0 0.00 0.00 0.00 66 1007.5
20230130042326 20 315 0.0 0.0 0.00 0.00 0.00 67 1007.5
20230130041825 20 315 0.0 0.0 0.00 0.00 0.00 67 1007.3
20230130041505 19 315 0.0 0.0 0.00 0.00 0.00 67 1015.7
20230130041325 20 315 0.0 0.0 0.00 0.00 0.00 67 1007.5
20230130040824 20 315 0.0 0.0 0.00 0.00 0.00 67 1007.5
20230130040323 20 315 0.0 0.0 0.00 0.00 0.00 67 1007.5
20230130040030 19 315 0.0 0.0 0.00 0.00 0.00 67 1015.8
20230130035823 20 315 0.0 0.0 0.00 0.00 0.00 67 1007.4
20230130034832 20 315 0.0 0.0 0.00 0.00 0.00 67 1007.4
20230130034504 19 315 0.0 0.0 0.00 0.00 0.00 67 1015.8
20230130034331 20 315 0.0 0.0 0.00 0.00 0.00 67 1007.4
20230130033851 20 315 0.0 0.0 0.00 0.00 0.00 67 1007.4
20230130033329 20 315 0.0 0.0 0.00 0.00 0.00 67 1007.3
20230130033020 19 315 0.0 0.0 0.00 0.00 0.00 67 1015.8
20230130032828 20 315 0.0 0.0 0.00 0.00 0.00 67 1007.3
20230130032326 20 315 0.0 0.0 0.00 0.00 0.00 67 1007.2
20230130031846 20 315 0.0 0.0 0.00 0.00 0.00 67 1007.3
20230130031516 19 315 0.0 0.0 0.00 0.00 0.00 67 1015.7
20230130031325 20 315 0.0 0.0 0.00 0.00 0.00 67 1007.3
20230130030825 20 315 0.0 0.0 0.00 0.00 0.00 67 1007.2
20230130030324 20 315 0.0 0.0 0.00 0.00 0.00 67 1007.3
20230130030053 19 315 0.0 1.0 0.00 0.00 0.00 67 1015.8
20230130025826 20 315 0.0 1.0 0.00 0.00 0.00 67 1007.3
20230130025327 20 314 0.0 1.0 0.00 0.00 0.00 67 1007.2
20230130024828 20 314 0.0 0.0 0.00 0.00 0.00 67 1007.3
20230130024507 20 360 0.0 0.0 0.00 0.00 0.00 67 1015.7
20230130024349 20 313 0.0 0.0 0.00 0.00 0.00 68 1007.2
20230130023830 20 314 0.0 0.0 0.00 0.00 0.00 68 1007.2
20230130023331 20 314 0.0 1.0 0.00 0.00 0.00 67 1007.1
20230130023056 20 314 0.0 1.0 0.00 0.00 0.00 67 1015.8
20230130022833 20 314 0.0 1.0 0.00 0.00 0.00 68 1007.2
20230130022333 20 314 0.0 1.0 0.00 0.00 0.00 67 1007.3
20230130021814 20 314 0.0 1.0 0.00 0.00 0.00 67 1007.1
20230130021543 20 314 0.0 1.0 0.00 0.00 0.00 67 1015.6
20230130021336 20 314 0.0 1.0 0.00 0.00 0.00 67 1007.1
20230130020827 20 314 0.0 1.0 0.00 0.00 0.00 67 1007.2
20230130020327 20 314 0.0 1.0 0.00 0.00 0.00 67 1007.1
20230130020049 20 314 0.0 1.0 0.00 0.00 0.00 67 1015.5
20230130015848 20 314 1.0 1.0 0.00 0.00 0.00 67 1007.1
20230130015328 20 314 0.0 1.0 0.00 0.00 0.00 67 1007.1
20230130014829 20 314 0.0 1.0 0.00 0.00 0.00 66 1007.1
20230130014516 20 314 0.0 1.0 0.00 0.00 0.00 66 1015.5
20230130013815 21 314 0.0 1.0 0.00 0.00 0.00 66 1007.0
20230130013316 21 314 0.0 2.0 0.00 0.00 0.00 65 1007.0
20230130013103 20 314 0.0 2.0 0.00 0.00 0.00 65 1015.3
20230130013001 20 314 0.0 2.0 0.00 0.00 0.00 65 1015.4
20230130012818 21 314 1.0 2.0 0.00 0.00 0.00 65 1006.9
20230130012319 21 314 1.0 2.0 0.00 0.00 0.00 65 1006.7
20230130011840 21 314 1.0 2.0 0.00 0.00 0.00 65 1006.7
20230130011517 20 314 0.0 2.0 0.00 0.00 0.00 65 1015.1
20230130011340 21 314 0.0 2.0 0.00 0.00 0.00 65 1006.6
20230130010827 21 360 1.0 2.0 0.00 0.00 0.00 65 1006.6
20230130010326 21 314 1.0 2.0 0.00 0.00 0.00 65 1006.6
20230130010031 20 314 0.0 2.0 0.00 0.00 0.00 65 1014.9
20230130005847 21 360 1.0 2.0 0.00 0.00 0.00 64 1006.4
20230130005328 21 360 1.0 3.0 0.00 0.00 0.00 64 1006.4
20230130004826 21 360 1.0 3.0 0.00 0.00 0.00 64 1006.4
20230130004549 21 360 1.0 4.0 0.00 0.00 0.00 64 1014.8
20230130004325 22 360 2.0 4.0 0.00 0.00 0.00 63 1006.4
20230130003823 22 360 1.0 5.0 0.00 0.00 0.00 63 1006.2
20230130003322 22 311 1.0 7.0 0.00 0.00 0.00 62 1006.3
20230130003044 22 309 1.0 7.0 0.00 0.00 0.00 61 1014.7
20230130002821 22 290 2.0 7.0 0.00 0.00 0.00 61 1006.3
20230130002320 22 329 1.0 5.0 0.00 0.00 0.00 59 1006.2
20230130001819 22 301 1.0 5.0 0.00 0.00 0.00 58 1006.2
20230130001517 22 343 1.0 4.0 0.00 0.00 0.00 58 1014.6
20230130001338 22 318 1.0 3.0 0.00 0.00 0.00 58 1006.1
20230130000815 23 309 1.0 3.0 0.00 0.00 0.00 57 1006.0
20230130000331 23 298 2.0 4.0 0.00 0.00 0.00 57 1005.9
20230130000017 22 298 1.0 4.0 0.00 0.00 0.00 56 1014.3
20230129235831 23 298 1.0 4.0 0.00 0.00 0.00 57 1005.9
20230129235330 23 360 1.0 5.0 0.00 0.00 0.00 56 1005.8
20230129234830 23 360 1.0 6.0 0.00 0.00 0.00 56 1005.9
20230129234506 23 360 1.0 8.0 0.00 0.00 0.00 56 1014.3
20230129234329 23 338 2.0 8.0 0.00 0.00 0.00 55 1005.9
20230129233825 23 321 2.0 5.0 0.00 0.00 0.00 56 1005.8
20230129233323 23 171 3.0 5.0 0.00 0.00 0.00 55 1005.8
20230129233020 23 346 2.0 6.0 0.00 0.00 0.00 55 1014.2
20230129232821 24 334 1.0 6.0 0.00 0.00 0.00 55 1005.9
20230129232318 24 287 3.0 6.0 0.00 0.00 0.00 54 1005.9
20230129231835 24 5 2.0 5.0 0.00 0.00 0.00 54 1005.8
20230129231507 24 349 2.0 5.0 0.00 0.00 0.00 54 1014.1
20230129231332 24 343 3.0 5.0 0.00 0.00 0.00 54 1005.8
20230129230830 24 334 2.0 8.0 0.00 0.00 0.00 53 1005.8
20230129230326 25 325 3.0 6.0 0.00 0.00 0.00 53 1005.8
20230129230048 24 275 1.0 8.0 0.00 0.00 0.00 52 1014.0
20230129225843 25 325 3.0 8.0 0.00 0.00 0.00 51 1005.8
20230129225340 25 292 3.0 8.0 0.00 0.00 0.00 50 1005.7
20230129224816 25 333 4.0 8.0 0.00 0.00 0.00 49 1005.5
20230129224555 25 325 3.0 8.0 0.00 0.00 0.00 48 1013.9
20230129224315 25 342 3.0 6.0 0.00 0.00 0.00 49 1005.6
20230129223833 26 277 3.0 8.0 0.00 0.00 0.00 49 1005.5
20230129223330 26 279 4.0 8.0 0.00 0.00 0.00 48 1005.6
20230129223037 25 360 2.0 7.0 0.00 0.00 0.00 48 1014.0
20230129222827 26 9 3.0 11.0 0.00 0.00 0.00 48 1005.6
20230129222346 26 309 3.0 11.0 0.00 0.00 0.00 48 1005.5
20230129221822 26 13 2.0 6.0 0.00 0.00 0.00 47 1005.5
20230129221559 26 14 2.0 8.0 0.00 0.00 0.00 47 1013.9
20230129221502 26 5 3.0 8.0 0.00 0.00 0.00 46 1013.8
20230129221320 26 339 2.0 8.0 0.00 0.00 0.00 46 1005.4
20230129220818 26 303 4.0 8.0 0.00 0.00 0.00 43 1005.4
20230129220315 26 360 4.0 12.0 0.00 0.00 0.00 45 1005.3
20230129220028 26 323 5.0 12.0 0.00 0.00 0.00 43 1013.7
20230129215829 26 343 4.0 10.0 0.00 0.00 0.00 44 1005.4
20230129215328 27 276 3.0 8.0 0.00 0.00 0.00 44 1005.4
20230129214825 27 293 3.0 8.0 0.00 0.00 0.00 43 1005.3
20230129214515 26 272 2.0 12.0 0.00 0.00 0.00 43 1013.6
20230129214323 27 318 3.0 12.0 0.00 0.00 0.00 42 1005.3
20230129213820 27 331 4.0 12.0 0.00 0.00 0.00 43 1005.2
20230129213319 27 338 5.0 12.0 0.00 0.00 0.00 42 1005.2
20230129213101 26 283 3.0 13.0 0.00 0.00 0.00 43 1013.5
20230129213002 26 311 4.0 13.0 0.00 0.00 0.00 43 1013.5
20230129212816 27 294 6.0 13.0 0.00 0.00 0.00 42 1005.0
20230129211822 27 281 6.0 15.0 0.00 0.00 0.00 43 1005.0
20230129211542 27 257 2.0 15.0 0.00 0.00 0.00 43 1013.4
20230129211320 27 289 5.0 15.0 0.00 0.00 0.00 42 1004.9
20230129210817 28 273 2.0 10.0 0.00 0.00 0.00 43 1005.0
20230129210333 28 266 4.0 10.0 0.00 0.00 0.00 43 1004.9
20230129210125 27 282 4.0 10.0 0.00 0.00 0.00 42 1013.3
20230129205851 27 290 3.0 7.0 0.00 0.00 0.00 42 1004.9
20230129205328 27 319 2.0 7.0 0.00 0.00 0.00 43 1005.0
20230129204828 27 304 3.0 11.0 0.00 0.00 0.00 44 1004.9
20230129204536 26 268 3.0 11.0 0.00 0.00 0.00 43 1013.3
20230129204327 27 285 4.0 14.0 0.00 0.00 0.00 42 1005.0
20230129203826 27 290 4.0 14.0 0.00 0.00 0.00 43 1005.2
20230129203345 27 340 3.0 11.0 0.00 0.00 0.00 43 1005.3
20230129203004 27 271 3.0 14.0 0.00 0.00 0.00 44 1013.8
20230129202823 27 275 4.0 14.0 0.00 0.00 0.00 44 1005.4
20230129202323 27 252 5.0 12.0 0.00 0.00 0.00 44 1005.5
20230129201823 27 306 6.0 12.0 0.00 0.00 0.00 43 1005.6
20230129201600 26 291 4.0 12.0 0.00 0.00 0.00 44 1014.1
20230129201504 26 284 4.0 12.0 0.00 0.00 0.00 44 1014.1
20230129200831 27 283 4.0 17.0 0.00 0.00 0.00 44 1005.7
20230129200347 27 243 9.0 17.0 0.00 0.00 0.00 43 1005.7
20230129200105 27 305 6.0 13.0 0.00 0.00 0.00 42 1014.1
20230129200003 27 265 5.0 13.0 0.00 0.00 0.00 41 1014.2
20230129195827 27 304 4.0 11.0 0.00 0.00 0.00 43 1005.7
20230129195325 27 291 4.0 11.0 0.00 0.00 0.00 44 1005.7
20230129194824 27 261 2.0 4.0 0.00 0.00 0.00 46 1006.0
20230129194516 27 299 0.0 3.0 0.00 0.00 0.00 46 1014.5
20230129194323 27 313 1.0 3.0 0.00 0.00 0.00 47 1006.0
20230129193823 26 313 1.0 5.0 0.00 0.00 0.00 48 1006.0
20230129193323 26 319 1.0 5.0 0.00 0.00 0.00 50 1006.1
20230129193059 26 294 2.0 6.0 0.00 0.00 0.00 49 1014.8
20230129192823 26 52 2.0 6.0 0.00 0.00 0.00 50 1006.1
20230129192342 26 331 3.0 6.0 0.00 0.00 0.00 51 1006.2
20230129191505 25 27 2.0 5.0 0.00 0.00 0.00 51 1014.9
20230129191329 26 348 2.0 5.0 0.00 0.00 0.00 52 1006.2
20230129190829 26 360 2.0 6.0 0.00 0.00 0.00 52 1006.2
20230129190326 26 26 3.0 6.0 0.00 0.00 0.00 52 1006.2
20230129190024 25 19 3.0 6.0 0.00 0.00 0.00 52 1015.2
20230129185844 26 218 3.0 6.0 0.00 0.00 0.00 52 1006.4
20230129185341 26 24 3.0 6.0 0.00 0.00 0.00 52 1006.3
20230129184818 26 336 1.0 5.0 0.00 0.00 0.00 53 1006.4
20230129184532 25 335 2.0 5.0 0.00 0.00 0.00 53 1015.6
20230129184318 26 347 2.0 5.0 0.00 0.00 0.00 53 1006.3
20230129183859 25 66 1.0 5.0 0.00 0.00 0.00 53 1006.5
20230129183328 25 344 2.0 5.0 0.00 0.00 0.00 53 1006.7
20230129183034 25 344 1.0 5.0 0.00 0.00 0.00 55 1015.8
20230129182847 25 330 2.0 6.0 0.00 0.00 0.00 54 1006.8
20230129182325 25 113 2.0 6.0 0.00 0.00 0.00 53 1006.8
20230129181825 25 350 1.0 5.0 0.00 0.00 0.00 53 1007.0
20230129181551 25 126 2.0 5.0 0.00 0.00 0.00 53 1016.2
20230129181325 25 105 1.0 3.0 0.00 0.00 0.00 53 1007.0
20230129180843 25 179 1.0 3.0 0.00 0.00 0.00 52 1007.1
20230129180319 24 170 1.0 3.0 0.00 0.00 0.00 53 1007.4
20230129180050 24 171 1.0 3.0 0.00 0.00 0.00 54 1016.4
20230129175819 24 146 1.0 2.0 0.00 0.00 0.00 54 1007.2
20230129174827 24 146 0.0 3.0 0.00 0.00 0.00 54 1007.4
20230129174521 23 146 0.0 3.0 0.00 0.00 0.00 54 1016.6
20230129174324 24 106 1.0 3.0 0.00 0.00 0.00 53 1007.5
20230129173822 24 119 1.0 3.0 0.00 0.00 0.00 53 1007.4
20230129173320 24 132 0.0 3.0 0.00 0.00 0.00 54 1007.5
20230129173034 24 132 1.0 3.0 0.00 0.00 0.00 53 1016.7
20230129172818 24 133 2.0 3.0 0.00 0.00 0.00 51 1007.5
20230129172336 24 81 1.0 2.0 0.00 0.00 0.00 53 1007.5
20230129171853 25 76 1.0 3.0 0.00 0.00 0.00 52 1007.6
20230129171517 24 75 1.0 3.0 0.00 0.00 0.00 50 1016.7
20230129171349 25 78 1.0 3.0 0.00 0.00 0.00 50 1007.6
20230129170825 26 108 1.0 3.0 0.00 0.00 0.00 51 1007.6
20230129170321 26 93 1.0 3.0 0.00 0.00 0.00 48 1007.8
20230129170033 25 92 1.0 3.0 0.00 0.00 0.00 50 1017.0
20230129165816 26 86 1.0 2.0 0.00 0.00 0.00 51 1007.7
20230129165334 26 86 1.0 2.0 0.00 0.00 0.00 52 1007.8
20230129164830 25 86 1.0 2.0 0.00 0.00 0.00 52 1007.8
20230129164619 24 86 0.0 3.0 0.00 0.00 0.00 54 1017.1
20230129164325 24 86 0.0 3.0 0.00 0.00 0.00 55 1007.8
20230129163823 22 86 2.0 3.0 0.00 0.00 0.00 56 1007.7
20230129163340 21 48 1.0 2.0 0.00 0.00 0.00 57 1007.7
20230129163004 20 19 0.0 2.0 0.00 0.00 0.00 57 1016.8
20230129162827 21 19 1.0 2.0 0.00 0.00 0.00 58 1007.5
20230129162342 20 355 1.0 2.0 0.00 0.00 0.00 59 1007.5
20230129161838 20 355 1.0 2.0 0.00 0.00 0.00 59 1007.5
20230129161508 19 329 0.0 1.0 0.00 0.00 0.00 60 1016.7
20230129161324 19 329 0.0 1.0 0.00 0.00 0.00 60 1007.5
20230129160822 18 330 0.0 2.0 0.00 0.00 0.00 61 1007.5
20230129160353 18 330 1.0 2.0 0.00 0.00 0.00 61 1007.5
20230129160012 17 331 0.0 2.0 0.00 0.00 0.00 61 1016.8
20230129155316 16 327 0.0 2.0 0.00 0.00 0.00 62 1007.3
20230129154833 16 319 1.0 2.0 0.00 0.00 0.00 62 1007.3
20230129154544 15 323 0.0 2.0 0.00 0.00 0.00 62 1016.8
20230129154350 15 355 0.0 2.0 0.00 0.00 0.00 62 1007.4
20230129153846 15 355 1.0 2.0 0.00 0.00 0.00 62 1007.4